User: anonymous   Login
Location: Bittelbronn
(48.4454°N, 8.5870°E)
Time: 18:18:53
(UTC+00:00)
Language:

Cosmos 1346 Rocket - Orbit

View from above orbital plane
View from above orbital plane
View from above satellite
View from above satellite

Ground track
Ground track

The orbit data is extracted from the following two-line orbital elements,

1 13121U 82027B   24207.18710624  .00007003  00000-0  34637-3 0  9997
2 13121  81.1935  12.6695 0011080 116.3140 243.9229 15.17633259308635
Epoch (UTC): 25 July 2024 04:29:25
Eccentricity: 0.0011080
inclination: 81.1935°
perigee height: 505 km
apogee height: 520 km
right ascension of ascending node: 12.6695°
argument of perigee: 116.3140°
revolutions per day: 15.17633259
mean anomaly at epoch: 243.9229°
orbit number at epoch: 30863

The dashed part of the orbit path shows where the satellite is in the earth's shadow,  

DLR